DW4565 Weather Reports


Display with metric or nautical units.
time (UTC)temp
F
wind
direction
speed
MPH
gust
MPH
rain 1hr
in
rain 24hr
in
rain mn
in
humidity
%
barometer
mb
20260506073031 49 309 3.0 12.0 0.00 0.00 0.00 93 1020.0
20260506071533 48 242 3.0 8.0 0.00 0.00 0.00 93 1020.1
20260506061534 47 160 1.0 7.0 0.00 0.00 0.00 94 1020.4
20260506044537 44 265 5.0 10.0 0.00 0.00 0.00 93 1020.3
20260506043029 44 240 3.0 7.0 0.00 0.00 0.00 93 1020.5
20260506041531 44 243 4.0 10.0 0.00 0.00 0.00 93 1020.6
20260506040030 44 288 2.0 10.0 0.00 0.00 0.00 92 1020.6
20260506034532 43 242 2.0 8.0 0.00 0.00 0.00 92 1020.3
20260506033032 43 285 2.0 7.0 0.00 0.00 0.00 92 1020.3
20260506031537 43 203 2.0 8.0 0.00 0.00 0.00 92 1019.9
20260506030029 43 234 2.0 7.0 0.00 0.00 0.00 92 1019.8
20260506024534 43 254 1.0 7.0 0.00 0.00 0.00 92 1019.8
20260506023028 43 242 2.0 5.0 0.00 0.00 0.00 92 1019.5
20260506021532 43 245 2.0 6.0 0.00 0.00 0.00 91 1019.3
20260506020031 43 245 4.0 12.0 0.00 0.00 0.00 91 1019.2
20260506014530 43 222 5.0 11.0 0.00 0.00 0.00 90 1019.2
20260506013031 43 238 6.0 11.0 0.00 0.00 0.00 89 1019.1
20260506011531 43 256 3.0 8.0 0.00 0.00 0.00 90 1019.1
20260506010032 43 184 3.0 8.0 0.00 0.00 0.00 89 1018.9
20260506004555 43 232 2.0 8.0 0.00 0.00 0.00 89 1018.6
20260506003032 43 250 2.0 7.0 0.00 0.00 0.00 88 1018.6
20260506001531 43 26 2.0 5.0 0.00 0.00 0.00 87 1018.2
20260506000029 44 244 1.0 6.0 0.00 0.00 0.00 85 1017.9
20260505234601 45 347 2.0 9.0 0.00 0.00 0.00 84 1017.5
20260505233028 46 264 3.0 9.0 0.00 0.00 0.00 83 1017.2
20260505231535 47 285 4.0 10.0 0.00 0.00 0.00 81 1016.8
20260505230032 48 257 6.0 14.0 0.00 0.00 0.00 80 1016.5
20260505224532 49 266 4.0 9.0 0.00 0.00 0.00 78 1016.3
20260505223031 50 246 4.0 11.0 0.00 0.00 0.00 76 1016.1
20260505221528 51 277 3.0 10.0 0.00 0.00 0.00 73 1015.8
20260505220028 52 250 2.0 6.0 0.00 0.00 0.00 70 1015.5
20260505214537 54 247 3.0 9.0 0.00 0.00 0.00 68 1015.2
20260505213029 55 30 5.0 13.0 0.00 0.00 0.00 66 1015.0
20260505211530 55 257 5.0 18.0 0.00 0.00 0.00 66 1014.8
20260505210031 55 246 7.0 15.0 0.00 0.00 0.00 62 1014.6
20260505204530 58 250 4.0 13.0 0.00 0.00 0.00 56 1014.4
20260505203032 59 247 5.0 18.0 0.00 0.00 0.00 49 1014.2
20260505201532 61 241 6.0 13.0 0.00 0.00 0.00 42 1014.0
20260505200035 61 220 7.0 18.0 0.00 0.00 0.00 40 1013.7
20260505194530 61 255 7.0 22.0 0.00 0.00 0.00 41 1013.5
20260505193031 60 283 9.0 20.0 0.00 0.00 0.00 41 1013.2
20260505191530 60 258 7.0 21.0 0.00 0.00 0.00 43 1013.2
20260505190031 60 250 10.0 29.0 0.00 0.00 0.00 44 1012.9
20260505184530 60 260 7.0 15.0 0.00 0.00 0.00 46 1012.9
20260505183042 60 243 8.0 17.0 0.00 0.00 0.00 47 1012.8
20260505181531 60 252 7.0 15.0 0.00 0.00 0.00 45 1012.6
20260505180033 59 255 9.0 21.0 0.00 0.00 0.00 48 1012.8
20260505174532 59 246 10.0 20.0 0.00 0.00 0.00 47 1012.6
20260505173039 60 249 5.0 17.0 0.00 0.00 0.00 49 1012.5
20260505171534 60 248 8.0 18.0 0.00 0.00 0.00 51 1012.4
20260505170034 60 254 6.0 24.0 0.00 0.00 0.00 50 1012.3
20260505164530 61 229 5.0 18.0 0.00 0.00 0.00 47 1012.2
20260505163029 60 263 6.0 18.0 0.00 0.00 0.00 44 1012.0
20260505161530 59 245 7.0 19.0 0.00 0.00 0.00 47 1011.9
20260505153030 58 241 9.0 24.0 0.00 0.00 0.00 50 1011.6
20260505151528 58 243 6.0 19.0 0.00 0.00 0.00 49 1011.6
20260505124531 52 241 10.0 18.0 0.00 0.00 0.00 69 1010.0
20260505123031 51 269 8.0 19.0 0.00 0.00 0.00 71 1009.9
20260505121528 51 248 7.0 19.0 0.00 0.00 0.00 71 1009.6
20260505120038 52 252 7.0 16.0 0.00 0.00 0.00 73 1009.1
20260505114531 51 233 4.0 11.0 0.00 0.00 0.00 76 1009.0
20260505113032 50 213 6.0 16.0 0.00 0.00 0.00 77 1008.8
20260505111530 49 264 4.0 11.0 0.00 0.00 0.00 79 1008.8
20260505101536 45 240 4.0 10.0 0.00 0.00 0.00 85 1008.4
20260505100030 44 253 2.0 8.0 0.00 0.00 0.00 86 1007.9
20260505094531 43 77 4.0 12.0 0.00 0.00 0.00 87 1007.5
20260505093031 42 270 3.0 12.0 0.00 0.00 0.00 88 1007.4
20260505091530 41 254 5.0 14.0 0.00 0.00 0.00 89 1007.3
20260505090028 40 228 3.0 11.0 0.00 0.00 0.00 90 1007.2
20260505084540 40 241 2.0 11.0 0.00 0.00 0.00 90 1006.9
20260505083030 39 280 5.0 13.0 0.00 0.00 0.00 91 1007.1
20260505081529 38 238 3.0 11.0 0.00 0.00 0.00 91 1006.7
20260505080030 38 178 4.0 11.0 0.00 0.00 0.00 90 1006.8
20260505074532 38 71 4.0 10.0 0.00 0.00 0.00 90 1006.4